Location: Alston School (historical)
(35.5076°N, 89.8251°W)
Time: 04:18:35
(UTC+00:00)

Cosmos 1607 - Pass Details

Date: 09 December 2025
Orbit: 925 x 976 km, 65.0° (Epoch: 16 January)

Event Time Altitude Azimuth Distance (km) Brightness Sun altitude
Rises 23:41:12 0° 333° (NNW) 3,613 7.1 -11.0°
Reaches altitude 10° 23:43:46 10° 337° (NNW) 2,673 6.3 -11.5°
Maximum altitude 23:49:58 65° 59° (ENE) 1,049 3.9 -12.7°
Drops below altitude 10° 23:56:14 10° 140° (SE) 2,695 6.1 -13.9°
Sets 23:58:49 0° 144° (SE) 3,644 6.8 -14.4°
